24-10-2022, 00:00:08,    154,    0.0,   10.5,   0.00,   0.00,  992.1,    0.0, -999.0
24-10-2022, 00:00:18,    154,    0.0,   10.5,   0.00,   0.00,  992.2,    0.0, -999.0
24-10-2022, 00:00:28,    154,    0.0,   10.5,   0.00,   0.01,  992.2,    0.0, -999.0
24-10-2022, 00:00:38,    154,    0.0,   10.5,   0.00,   0.00,  992.1,    0.0, -999.0
24-10-2022, 00:00:48,    154,    0.0,   10.5,   0.00,   0.00,  992.1,    0.0, -999.0
24-10-2022, 00:00:58,    155,    0.0,   10.5,   0.00,   0.00,  992.1,    0.0, -999.0
24-10-2022, 00:01:07,    154,    0.0,   10.5,   0.00,   0.01,  992.2,    0.1, -999.0
24-10-2022, 00:01:17,    155,    0.0,   10.6,   0.00,   0.00,  992.2,    0.0, -999.0
24-10-2022, 00:01:28,    154,    0.0,   10.6,   0.00,   0.01,  992.1,    0.0, -999.0
24-10-2022, 00:01:37,    154,    0.0,   10.6,   0.00,   0.00,  992.1,    0.0, -999.0
24-10-2022, 00:01:47,    154,    0.0,   10.6,   0.00,   0.00,  992.1,    0.0, -999.0
24-10-2022, 00:01:57,    154,    0.0,   10.7,   0.00,   0.00,  992.1,    0.0, -999.0
24-10-2022, 00:02:07,    154,    0.0,   10.7,   0.00,   0.01,  992.1,    0.0, -999.0
24-10-2022, 00:02:17,    154,    0.0,   10.6,   0.00,   0.00,  992.1,    0.0, -999.0
24-10-2022, 00:02:27,    154,    0.0,   10.5,   0.00,   0.00,  992.2,    0.0, -999.0
24-10-2022, 00:02:37,    154,    0.1,   10.7,   0.00,   0.00,  992.2,    0.0, -999.0
24-10-2022, 00:02:47,    154,    0.0,   10.6,   0.00,   0.00,  992.1,    0.0, -999.0
24-10-2022, 00:02:57,    154,    0.0,   10.6,   0.00,   0.00,  992.1,    0.0, -999.0
24-10-2022, 00:03:07,    154,    0.0,   10.6,   0.00,   0.01,  992.1,    0.0, -999.0
24-10-2022, 00:03:17,    154,    0.1,   10.6,   0.00,   0.00,  992.2,    0.0, -999.0
24-10-2022, 00:03:27,    154,    0.2,   10.5,   0.00,   0.00,  992.2,    0.0, -999.0
24-10-2022, 00:03:37,    155,    0.1,   10.5,   0.00,   0.00,  992.2,    0.0, -999.0
24-10-2022, 00:03:46,    155,    0.2,   10.6,   0.00,   0.00,  992.2,    0.0, -999.0
24-10-2022, 00:03:57,    154,    0.2,   10.6,   0.00,   0.00,  992.2,    0.0, -999.0
24-10-2022, 00:04:07,    155,    0.6,   10.6,   0.00,   0.00,  992.2,    0.0, -999.0
24-10-2022, 00:04:16,    154,    0.4,   10.7,   0.00,   0.00,  992.2,    0.0, -999.0
24-10-2022, 00:04:26,    154,    0.0,   10.6,   0.00,   0.00,  992.1,    0.0, -999.0
24-10-2022, 00:04:37,    154,    0.0,   10.6,   0.00,   0.00,  992.1,    0.0, -999.0
24-10-2022, 00:04:46,    155,    0.5,   10.6,   0.00,   0.00,  992.2,    0.0, -999.0
24-10-2022, 00:04:56,    155,    0.6,   10.6,   0.00,   0.00,  992.2,    0.0, -999.0
24-10-2022, 00:05:06,    155,    0.5,   10.6,   0.00,   0.00,  992.2,    0.0, -999.0
24-10-2022, 00:05:16,    155,    0.2,   10.7,   0.00,   0.00,  992.2,    0.0, -999.0
24-10-2022, 00:05:26,    154,    0.1,   10.6,   0.00,   0.00,  992.2,    0.0, -999.0
24-10-2022, 00:05:36,    154,    0.0,   10.7,   0.00,   0.00,  992.1,    0.0, -999.0
24-10-2022, 00:05:46,    154,    0.0,   10.6,   0.00,   0.01,  992.1,    0.0, -999.0
24-10-2022, 00:05:56,    154,    0.0,   10.6,   0.00,   0.00,  992.1,    0.0, -999.0
24-10-2022, 00:06:06,    154,    0.0,   10.6,   0.00,   0.00,  992.1,    0.0, -999.0
24-10-2022, 00:06:16,    155,    0.0,   10.6,   0.00,   0.00,  992.1,    0.0, -999.0
24-10-2022, 00:06:25,    154,    0.0,   10.7,   0.00,   0.00,  992.1,    0.0, -999.0
24-10-2022, 00:06:36,    154,    0.0,   10.7,   0.00,   0.00,  992.1,    0.0, -999.0
24-10-2022, 00:06:46,    154,    0.0,   10.6,   0.00,   0.00,  992.1,    0.0, -999.0
24-10-2022, 00:06:55,    154,    0.0,   10.6,   0.00,   0.00,  992.1,    0.0, -999.0
24-10-2022, 00:07:06,    154,    0.0,   10.6,   0.00,   0.00,  992.1,    0.0, -999.0
24-10-2022, 00:07:16,    154,    0.0,   10.6,   0.00,   0.00,  992.1,    0.0, -999.0
24-10-2022, 00:07:25,    154,    0.0,   10.5,   0.00,   0.00,  992.1,    0.0, -999.0
24-10-2022, 00:07:35,    155,    0.0,   10.6,   0.00,   0.00,  992.1,    0.0, -999.0
24-10-2022, 00:07:45,    154,    0.0,   10.5,   0.00,   0.00,  992.1,    0.0, -999.0
24-10-2022, 00:07:55,    154,    0.0,   10.6,   0.00,   0.00,  992.1,    0.0, -999.0
24-10-2022, 00:08:05,    154,    0.0,   10.6,   0.00,   0.00,  992.1,    0.0, -999.0
24-10-2022, 00:08:15,    154,    0.0,   10.6,   0.00,   0.00,  992.1,    0.0, -999.0
24-10-2022, 00:08:25,    154,    0.0,   10.6,   0.00,   0.00,  992.1,    0.0, -999.0
24-10-2022, 00:08:35,    154,    0.0,   10.7,   0.00,   0.00,  992.1,    0.0, -999.0
24-10-2022, 00:08:45,    154,    0.0,   10.7,   0.00,   0.00,  992.1,    0.0, -999.0
24-10-2022, 00:08:55,    154,    0.0,   10.7,   0.00,   0.00,  992.1,    0.0, -999.0
24-10-2022, 00:09:05,    154,    0.0,   10.7,   0.00,   0.00,  992.1,    0.0, -999.0
24-10-2022, 00:09:15,    155,    0.0,   10.7,   0.00,   0.00,  992.1,    0.0, -999.0
24-10-2022, 00:09:25,    154,    0.0,   10.7,   0.00,   0.00,  992.1,    0.0, -999.0
24-10-2022, 00:09:35,    154,    0.0,   10.7,   0.00,   0.00,  992.1,    0.0, -999.0
24-10-2022, 00:09:45,    154,    0.0,   10.7,   0.00,   0.00,  992.2,    0.0, -999.0
24-10-2022, 00:09:55,    154,    0.0,   10.7,   0.00,   0.00,  992.2,    0.0, -999.0
24-10-2022, 00:10:04,    154,    0.0,   10.8,   0.00,   0.00,  992.2,    0.0, -999.0
24-10-2022, 00:10:15,    154,    0.0,   10.7,   0.00,   0.00,  992.1,    0.0, -999.0
24-10-2022, 00:10:24,    154,    0.0,   10.7,   0.00,   0.00,  992.1,    0.0, -999.0
24-10-2022, 00:10:34,    154,    0.0,   10.7,   0.00,   0.00,  992.1,    0.0, -999.0
24-10-2022, 00:10:44,    154,    0.0,   10.7,   0.00,   0.00,  992.2,    0.0, -999.0
24-10-2022, 00:10:54,    154,    0.0,   10.6,   0.00,   0.00,  992.2,    0.0, -999.0
24-10-2022, 00:11:04,    154,    0.0,   10.6,   0.00,   0.00,  992.2,    0.0, -999.0
24-10-2022, 00:11:14,    154,    0.0,   10.6,   0.00,   0.00,  992.2,    0.0, -999.0
24-10-2022, 00:11:24,    154,    0.0,   10.7,   0.00,   0.01,  992.2,    0.0, -999.0
24-10-2022, 00:11:34,    154,    0.0,   10.6,   0.00,   0.00,  992.2,    0.1, -999.0
24-10-2022, 00:11:44,    154,    0.0,   10.6,   0.00,   0.00,  992.2,    0.0, -999.0
24-10-2022, 00:11:54,    154,    0.0,   10.5,   0.00,   0.00,  992.2,    0.0, -999.0
24-10-2022, 00:12:04,    154,    0.0,   10.5,   0.00,   0.00,  992.2,    0.0, -999.0
24-10-2022, 00:12:14,    154,    0.0,   10.5,   0.00,   0.00,  992.2,    0.0, -999.0
24-10-2022, 00:12:24,    154,    0.0,   10.6,   0.00,   0.00,  992.2,    0.1, -999.0
24-10-2022, 00:12:33,    154,    0.0,   10.5,   0.00,   0.00,  992.2,    0.0, -999.0
24-10-2022, 00:12:44,    155,    0.0,   10.5,   0.00,   0.00,  992.2,    0.0, -999.0
24-10-2022, 00:12:54,    154,    0.0,   10.5,   0.00,   0.00,  992.2,    0.0, -999.0
24-10-2022, 00:13:03,    154,    0.0,   10.5,   0.00,   0.00,  992.2,    0.0, -999.0
24-10-2022, 00:13:13,    154,    0.0,   10.5,   0.00,   0.00,  992.2,    0.0, -999.0
24-10-2022, 00:13:24,    154,    0.0,   10.5,   0.00,   0.00,  992.2,    0.0, -999.0
24-10-2022, 00:13:33,    154,    0.0,   10.5,   0.00,   0.00,  992.2,    0.0, -999.0
24-10-2022, 00:13:43,    154,    0.0,   10.5,   0.00,   0.00,  992.2,    0.0, -999.0
24-10-2022, 00:13:53,    154,    0.0,   10.4,   0.00,   0.00,  992.2,    0.1, -999.0
24-10-2022, 00:14:03,    154,    0.0,   10.5,   0.00,   0.00,  992.2,    0.0, -999.0
24-10-2022, 00:14:13,    152,    0.0,   10.5,   0.00,   0.00,  992.2,    0.0, -999.0
24-10-2022, 00:14:23,    157,    0.0,   10.4,   0.00,   0.00,  992.2,    0.0, -999.0
24-10-2022, 00:14:33,    154,    0.0,   10.4,   0.00,   0.00,  992.2,    0.0, -999.0
24-10-2022, 00:14:43,    154,    0.0,   10.5,   0.00,   0.00,  992.2,    0.0, -999.0
24-10-2022, 00:14:53,    154,    0.0,   10.5,   0.00,   0.00,  992.2,    0.0, -999.0
24-10-2022, 00:15:03,    155,    0.0,   10.5,   0.00,   0.00,  992.2,    0.0, -999.0
24-10-2022, 00:15:13,    154,    0.0,   10.5,   0.00,   0.00,  992.2,    0.0, -999.0
24-10-2022, 00:15:23,    154,    0.0,   10.5,   0.00,   0.00,  992.2,    0.0, -999.0
24-10-2022, 00:15:33,    154,    0.0,   10.5,   0.00,   0.00,  992.2,    0.0, -999.0
24-10-2022, 00:15:42,    154,    0.0,   10.5,   0.00,   0.00,  992.2,    0.0, -999.0
24-10-2022, 00:15:53,    154,    0.0,   10.5,   0.00,   0.00,  992.2,    0.0, -999.0
24-10-2022, 00:16:03,    154,    0.0,   10.4,   0.00,   0.00,  992.3,    0.0, -999.0
24-10-2022, 00:16:12,    154,    0.0,   10.5,   0.00,   0.00,  992.2,    0.0, -999.0
24-10-2022, 00:16:22,    154,    0.0,   10.4,   0.00,   0.00,  992.3,    0.1, -999.0
24-10-2022, 00:16:32,    155,    0.0,   10.4,   0.00,   0.00,  992.3,    0.0, -999.0
24-10-2022, 00:16:42,    154,    0.0,   10.5,   0.00,   0.00,  992.2,    0.1, -999.0
24-10-2022, 00:16:52,    154,    0.0,   10.5,   0.00,   0.00,  992.3,    0.0, -999.0
24-10-2022, 00:17:02,    157,    0.0,   10.5,   0.00,   0.00,  992.2,    0.0, -999.0
24-10-2022, 00:17:12,    154,    0.0,   10.5,   0.00,   0.00,  992.3,    0.0, -999.0
24-10-2022, 00:17:22,    154,    0.0,   10.4,   0.00,   0.00,  992.3,    0.0, -999.0
24-10-2022, 00:17:32,    154,    0.0,   10.5,   0.00,   0.00,  992.3,    0.1, -999.0
24-10-2022, 00:17:42,    154,    0.0,   10.5,   0.00,   0.00,  992.3,    0.0, -999.0
24-10-2022, 00:17:52,    154,    0.0,   10.5,   0.00,   0.00,  992.3,    0.0, -999.0
24-10-2022, 00:18:02,    154,    0.0,   10.5,   0.00,   0.00,  992.3,    0.0, -999.0
24-10-2022, 00:18:12,    154,    0.0,   10.4,   0.00,   0.00,  992.3,    0.0, -999.0
24-10-2022, 00:18:22,    154,    0.0,   10.4,   0.00,   0.00,  992.3,    0.3, -999.0
24-10-2022, 00:18:32,    152,    0.0,   10.5,   0.00,   0.00,  992.3,    0.0, -999.0
24-10-2022, 00:18:41,    154,    0.0,   10.4,   0.00,   0.00,  992.3,    0.0, -999.0
24-10-2022, 00:18:52,    154,    0.0,   10.5,   0.00,   0.00,  992.3,    0.1, -999.0
24-10-2022, 00:19:02,    154,    0.0,   10.5,   0.00,   0.00,  992.3,    0.0, -999.0
24-10-2022, 00:19:11,    154,    0.0,   10.5,   0.00,   0.00,  992.4,    0.0, -999.0
24-10-2022, 00:19:21,    154,    0.0,   10.4,   0.00,   0.00,  992.4,    0.0, -999.0
24-10-2022, 00:19:32,    154,    0.0,   10.5,   0.00,   0.00,  992.4,    0.0, -999.0
24-10-2022, 00:19:41,    155,    0.0,   10.4,   0.00,   0.00,  992.4,    0.0, -999.0
24-10-2022, 00:19:51,    154,    0.0,   10.3,   0.00,   0.00,  992.4,    0.0, -999.0
24-10-2022, 00:20:01,    154,    0.0,   10.5,   0.00,   0.00,  992.4,    0.0, -999.0
24-10-2022, 00:20:11,    154,    0.0,   10.5,   0.00,   0.00,  992.4,    0.0, -999.0
24-10-2022, 00:20:21,    154,    0.0,   10.5,   0.00,   0.00,  992.4,    0.0, -999.0
24-10-2022, 00:20:31,    154,    0.0,   10.4,   0.00,   0.00,  992.4,    0.0, -999.0
24-10-2022, 00:20:41,    154,    0.0,   10.4,   0.00,   0.00,  992.4,    0.0, -999.0
24-10-2022, 00:20:51,    154,    0.0,   10.4,   0.00,   0.00,  992.4,    0.0, -999.0
24-10-2022, 00:21:01,    154,    0.0,   10.4,   0.00,   0.00,  992.4,    0.0, -999.0
24-10-2022, 00:21:11,    154,    0.0,   10.4,   0.00,   0.00,  992.4,    0.0, -999.0
24-10-2022, 00:21:20,    154,    0.0,   10.4,   0.00,   0.00,  992.4,    0.0, -999.0
24-10-2022, 00:21:31,    154,    0.0,   10.4,   0.00,   0.00,  992.4,    0.0, -999.0
24-10-2022, 00:21:41,    154,    0.0,   10.4,   0.00,   0.00,  992.4,    0.0, -999.0
24-10-2022, 00:21:50,    154,    0.0,   10.3,   0.00,   0.00,  992.4,    0.0, -999.0
24-10-2022, 00:22:01,    154,    0.0,   10.4,   0.00,   0.00,  992.4,    0.0, -999.0
24-10-2022, 00:22:11,    154,    0.0,   10.5,   0.00,   0.00,  992.4,    0.0, -999.0
24-10-2022, 00:22:20,    154,    0.0,   10.5,   0.00,   0.00,  992.4,    0.0, -999.0
24-10-2022, 00:22:30,    154,    0.0,   10.4,   0.00,   0.00,  992.4,    0.0, -999.0
24-10-2022, 00:22:41,    154,    0.0,   10.5,   0.00,   0.00,  992.4,    0.0, -999.0
24-10-2022, 00:22:50,    154,    0.0,   10.4,   0.00,   0.00,  992.4,    0.0, -999.0
24-10-2022, 00:23:00,    154,    0.0,   10.5,   0.00,   0.00,  992.4,    0.0, -999.0
24-10-2022, 00:23:10,    154,    0.0,   10.4,   0.00,   0.00,  992.4,    0.0, -999.0
24-10-2022, 00:23:20,    154,    0.0,   10.4,   0.00,   0.00,  992.4,    0.0, -999.0
24-10-2022, 00:23:30,    154,    0.0,   10.5,   0.00,   0.00,  992.4,    0.0, -999.0
24-10-2022, 00:23:40,    154,    0.0,   10.4,   0.00,   0.00,  992.4,    0.1, -999.0
24-10-2022, 00:23:50,    154,    0.0,   10.5,   0.00,   0.00,  992.4,    0.0, -999.0
24-10-2022, 00:24:00,    154,    0.0,   10.5,   0.00,   0.00,  992.4,    0.0, -999.0
24-10-2022, 00:24:10,    154,    0.0,   10.5,   0.00,   0.00,  992.4,    0.0, -999.0
24-10-2022, 00:24:20,    154,    0.0,   10.5,   0.00,   0.00,  992.4,    0.0, -999.0
24-10-2022, 00:24:29,    154,    0.0,   10.4,   0.00,   0.00,  992.4,    0.0, -999.0
24-10-2022, 00:24:40,    154,    0.0,   10.5,   0.00,   0.00,  992.4,    0.1, -999.0
24-10-2022, 00:24:50,    154,    0.0,   10.4,   0.00,   0.00,  992.4,    0.0, -999.0
24-10-2022, 00:24:59,    154,    0.0,   10.4,   0.00,   0.00,  992.4,    0.0, -999.0
24-10-2022, 00:25:10,    154,    0.0,   10.4,   0.00,   0.00,  992.4,    0.0, -999.0
24-10-2022, 00:25:20,    154,    0.0,   10.4,   0.00,   0.00,  992.4,    0.0, -999.0
24-10-2022, 00:25:29,    154,    0.0,   10.3,   0.00,   0.00,  992.4,    0.0, -999.0
24-10-2022, 00:25:39,    154,    0.0,   10.4,   0.00,   0.00,  992.4,    0.0, -999.0
24-10-2022, 00:25:49,    153,    0.0,   10.4,   0.00,   0.00,  992.4,    0.0, -999.0
24-10-2022, 00:25:59,    154,    0.0,   10.4,   0.00,   0.00,  992.5,    0.0, -999.0
24-10-2022, 00:26:09,    154,    0.0,   10.4,   0.00,   0.00,  992.4,    0.0, -999.0
24-10-2022, 00:26:19,    154,    0.0,   10.4,   0.00,   0.00,  992.5,    0.0, -999.0
24-10-2022, 00:26:29,    154,    0.0,   10.4,   0.00,   0.00,  992.4,    0.0, -999.0
24-10-2022, 00:26:39,    154,    0.0,   10.4,   0.00,   0.00,  992.4,    0.0, -999.0
24-10-2022, 00:26:49,    154,    0.0,   10.4,   0.00,   0.00,  992.4,    0.0, -999.0
24-10-2022, 00:26:59,    154,    0.0,   10.4,   0.00,   0.00,  992.4,    0.0, -999.0
24-10-2022, 00:27:09,    154,    0.0,   10.4,   0.00,   0.00,  992.4,    0.0, -999.0
24-10-2022, 00:27:19,    154,    0.0,   10.4,   0.00,   0.01,  992.4,    0.0, -999.0
24-10-2022, 00:27:29,    154,    0.0,   10.4,   0.00,   0.00,  992.4,    0.0, -999.0
24-10-2022, 00:27:39,    154,    0.0,   10.4,   0.00,   0.00,  992.4,    0.0, -999.0
24-10-2022, 00:27:49,    154,    0.0,   10.3,   0.00,   0.00,  992.4,    0.0, -999.0
24-10-2022, 00:27:58,    154,    0.0,   10.3,   0.00,   0.00,  992.5,    0.0, -999.0
24-10-2022, 00:28:08,    154,    0.0,   10.4,   0.00,   0.00,  992.4,    0.0, -999.0
24-10-2022, 00:28:19,    154,    0.0,   10.4,   0.00,   0.00,  992.4,    0.0, -999.0
24-10-2022, 00:28:28,    154,    0.0,   10.4,   0.00,   0.00,  992.4,    0.0, -999.0
24-10-2022, 00:28:38,    154,    0.0,   10.3,   0.00,   0.00,  992.4,    0.0, -999.0
24-10-2022, 00:28:48,    154,    0.0,   10.3,   0.00,   0.00,  992.4,    0.0, -999.0
24-10-2022, 00:28:58,    154,    0.0,   10.3,   0.00,   0.00,  992.5,    0.1, -999.0
24-10-2022, 00:29:08,    154,    0.1,   10.4,   0.00,   0.00,  992.5,    0.0, -999.0
24-10-2022, 00:29:18,    155,    0.0,   10.4,   0.00,   0.00,  992.5,    0.0, -999.0
24-10-2022, 00:29:28,    154,    0.0,   10.3,   0.00,   0.00,  992.5,    0.0, -999.0
24-10-2022, 00:29:38,    154,    0.0,   10.3,   0.00,   0.00,  992.5,    0.0, -999.0
24-10-2022, 00:29:48,    154,    0.0,   10.3,   0.00,   0.00,  992.5,    0.0, -999.0
24-10-2022, 00:29:58,    154,    0.0,   10.2,   0.00,   0.00,  992.5,    0.0, -999.0
24-10-2022, 00:30:08,    155,    0.0,   10.3,   0.00,   0.00,  992.5,    0.0, -999.0
24-10-2022, 00:30:18,    154,    0.0,   10.4,   0.00,   0.00,  992.5,    0.0, -999.0
24-10-2022, 00:30:28,    154,    0.0,   10.3,   0.00,   0.00,  992.5,    0.0, -999.0
24-10-2022, 00:30:37,    154,    0.0,   10.3,   0.00,   0.00,  992.5,    0.0, -999.0
24-10-2022, 00:30:48,    154,    0.0,   10.4,   0.00,   0.00,  992.5,    0.0, -999.0
24-10-2022, 00:30:58,    154,    0.0,   10.3,   0.00,   0.00,  992.5,    0.0, -999.0
24-10-2022, 00:31:07,    154,    0.0,   10.3,   0.00,   0.01,  992.4,    0.0, -999.0
24-10-2022, 00:31:17,    154,    0.0,   10.3,   0.00,   0.00,  992.5,    0.0, -999.0
24-10-2022, 00:31:28,    154,    0.0,   10.3,   0.00,   0.00,  992.4,    0.0, -999.0
24-10-2022, 00:31:37,    154,    0.0,   10.2,   0.00,   0.00,  992.4,    0.0, -999.0
24-10-2022, 00:31:47,    154,    0.0,   10.2,   0.00,   0.00,  992.4,    0.0, -999.0
24-10-2022, 00:31:57,    154,    0.0,   10.4,   0.00,   0.00,  992.4,    0.0, -999.0
24-10-2022, 00:32:07,    154,    0.0,   10.2,   0.00,   0.00,  992.5,    0.0, -999.0
24-10-2022, 00:32:17,    154,    0.0,   10.3,   0.00,   0.01,  992.5,    0.0, -999.0
24-10-2022, 00:32:27,    154,    0.0,   10.3,   0.00,   0.00,  992.5,    0.0, -999.0
24-10-2022, 00:32:37,    154,    0.0,   10.3,   0.00,   0.00,  992.5,    0.0, -999.0
24-10-2022, 00:32:47,    154,    0.0,   10.3,   0.00,   0.00,  992.5,    0.0, -999.0
24-10-2022, 00:32:57,    154,    0.0,   10.3,   0.00,   0.00,  992.5,    0.0, -999.0
24-10-2022, 00:33:07,    154,    0.0,   10.3,   0.00,   0.00,  992.5,    0.0, -999.0
24-10-2022, 00:33:17,    154,    0.0,   10.3,   0.00,   0.01,  992.5,    0.0, -999.0
24-10-2022, 00:33:27,    154,    0.0,   10.2,   0.00,   0.00,  992.5,    0.0, -999.0
24-10-2022, 00:33:37,    154,    0.0,   10.3,   0.00,   0.00,  992.5,    0.0, -999.0
24-10-2022, 00:33:46,    154,    0.0,   10.3,   0.00,   0.00,  992.5,    0.0, -999.0
24-10-2022, 00:33:57,    154,    0.0,   10.3,   0.00,   0.00,  992.5,    0.0, -999.0
24-10-2022, 00:34:07,    154,    0.0,   10.3,   0.00,   0.00,  992.5,    0.0, -999.0
24-10-2022, 00:34:16,    154,    0.0,   10.3,   0.00,   0.00,  992.5,    0.0, -999.0
24-10-2022, 00:34:26,    154,    0.0,   10.3,   0.00,   0.01,  992.5,    0.0, -999.0
24-10-2022, 00:34:36,    154,    0.0,   10.3,   0.00,   0.00,  992.6,    0.1, -999.0
24-10-2022, 00:34:46,    154,    0.0,   10.3,   0.00,   0.00,  992.5,    0.0, -999.0
24-10-2022, 00:34:56,    154,    0.0,   10.2,   0.00,   0.00,  992.5,    0.0, -999.0
24-10-2022, 00:35:06,    154,    0.0,   10.3,   0.00,   0.01,  992.5,    0.0, -999.0
24-10-2022, 00:35:16,    154,    0.0,   10.2,   0.00,   0.00,  992.5,    0.0, -999.0
24-10-2022, 00:35:26,    154,    0.0,   10.3,   0.00,   0.00,  992.5,    0.0, -999.0
24-10-2022, 00:35:36,    154,    0.0,   10.3,   0.00,   0.00,  992.5,    0.0, -999.0
24-10-2022, 00:35:46,    154,    0.0,   10.2,   0.00,   0.01,  992.5,    0.1, -999.0
24-10-2022, 00:35:56,    153,    0.0,   10.2,   0.00,   0.00,  992.5,    0.0, -999.0
24-10-2022, 00:36:06,    154,    0.0,   10.2,   0.00,   0.00,  992.5,    0.0, -999.0
24-10-2022, 00:36:16,    155,    0.0,   10.3,   0.00,   0.01,  992.6,    0.0, -999.0
24-10-2022, 00:36:26,    154,    0.0,   10.3,   0.00,   0.00,  992.6,    0.0, -999.0
24-10-2022, 00:36:36,    154,    0.0,   10.3,   0.00,   0.01,  992.6,    0.0, -999.0
24-10-2022, 00:36:46,    154,    0.0,   10.3,   0.00,   0.00,  992.6,    0.0, -999.0
24-10-2022, 00:36:55,    154,    0.0,   10.2,   0.00,   0.00,  992.6,    0.0, -999.0
24-10-2022, 00:37:06,    154,    0.0,   10.2,   0.00,   0.01,  992.5,    0.0, -999.0
24-10-2022, 00:37:15,    154,    0.0,   10.1,   0.00,   0.00,  992.5,    0.0, -999.0
24-10-2022, 00:37:25,    154,    0.0,   10.2,   0.00,   0.00,  992.6,    0.0, -999.0
24-10-2022, 00:37:36,    154,    0.0,   10.1,   0.00,   0.01,  992.6,    0.0, -999.0
24-10-2022, 00:37:45,    154,    0.0,   10.2,   0.00,   0.00,  992.6,    0.0, -999.0
24-10-2022, 00:37:55,    154,    0.0,   10.1,   0.00,   0.00,  992.6,    0.0, -999.0
24-10-2022, 00:38:05,    154,    0.0,   10.3,   0.00,   0.00,  992.6,    0.0, -999.0
24-10-2022, 00:38:15,    154,    0.0,   10.2,   0.00,   0.00,  992.5,    0.0, -999.0
24-10-2022, 00:38:25,    154,    0.0,   10.3,   0.00,   0.01,  992.5,    0.0, -999.0
24-10-2022, 00:38:35,    154,    0.0,   10.3,   0.00,   0.00,  992.6,    0.1, -999.0
24-10-2022, 00:38:45,    154,    0.0,   10.2,   0.00,   0.00,  992.6,    0.0, -999.0
24-10-2022, 00:38:55,    154,    0.0,   10.3,   0.00,   0.00,  992.6,    0.0, -999.0
24-10-2022, 00:39:05,    154,    0.0,   10.3,   0.00,   0.00,  992.6,    0.0, -999.0
24-10-2022, 00:39:15,    154,    0.0,   10.3,   0.00,   0.01,  992.6,    0.0, -999.0
24-10-2022, 00:39:25,    154,    0.0,   10.2,   0.00,   0.00,  992.6,    0.0, -999.0
24-10-2022, 00:39:35,    154,    0.0,   10.3,   0.00,   0.00,  992.6,    0.0, -999.0
24-10-2022, 00:39:45,    154,    0.0,   10.2,   0.00,   0.00,  992.6,    0.0, -999.0
24-10-2022, 00:39:54,    154,    0.0,   10.1,   0.00,   0.00,  992.6,    0.0, -999.0
24-10-2022, 00:40:04,    154,    0.0,   10.2,   0.00,   0.01,  992.6,    0.0, -999.0
24-10-2022, 00:40:15,    154,    0.0,   10.2,   0.00,   0.00,  992.6,    0.0, -999.0
24-10-2022, 00:40:24,    154,    0.0,   10.3,   0.00,   0.00,  992.6,    0.0, -999.0
24-10-2022, 00:40:34,    154,    0.0,   10.2,   0.00,   0.00,  992.6,    0.0, -999.0
24-10-2022, 00:40:45,    154,    0.0,   10.2,   0.00,   0.00,  992.6,    0.0, -999.0
24-10-2022, 00:40:54,    154,    0.0,   10.2,   0.00,   0.00,  992.6,    0.0, -999.0
24-10-2022, 00:41:04,    154,    0.0,   10.2,   0.00,   0.01,  992.6,    0.0, -999.0
24-10-2022, 00:41:14,    154,    0.0,   10.3,   0.00,   0.00,  992.6,    0.0, -999.0
24-10-2022, 00:41:24,    154,    0.0,   10.2,   0.00,   0.00,  992.6,    0.0, -999.0
24-10-2022, 00:41:34,    154,    0.0,   10.3,   0.00,   0.00,  992.6,    0.0, -999.0
24-10-2022, 00:41:44,    154,    0.0,   10.3,   0.00,   0.00,  992.6,    0.0, -999.0
24-10-2022, 00:41:54,    154,    0.0,   10.3,   0.00,   0.00,  992.6,    0.0, -999.0
24-10-2022, 00:42:04,    154,    0.0,   10.3,   0.00,   0.00,  992.6,    0.0, -999.0
24-10-2022, 00:42:14,    154,    0.0,   10.2,   0.00,   0.00,  992.6,    0.0, -999.0
24-10-2022, 00:42:24,    154,    0.0,   10.3,   0.00,   0.00,  992.6,    0.0, -999.0
24-10-2022, 00:42:33,    154,    0.0,   10.2,   0.00,   0.00,  992.6,    0.0, -999.0
24-10-2022, 00:42:44,    154,    0.0,   10.1,   0.00,   0.00,  992.6,    0.0, -999.0
24-10-2022, 00:42:54,    154,    0.0,   10.3,   0.00,   0.01,  992.6,    0.0, -999.0
24-10-2022, 00:43:03,    154,    0.0,   10.2,   0.00,   0.00,  992.6,    0.0, -999.0
24-10-2022, 00:43:13,    154,    0.0,   10.2,   0.00,   0.00,  992.6,    0.0, -999.0
24-10-2022, 00:43:24,    154,    0.0,   10.2,   0.00,   0.00,  992.6,    0.0, -999.0
24-10-2022, 00:43:33,    154,    0.0,   10.3,   0.00,   0.00,  992.6,    0.0, -999.0
24-10-2022, 00:43:43,    154,    0.0,   10.2,   0.00,   0.00,  992.6,    0.0, -999.0
24-10-2022, 00:43:53,    155,    0.0,   10.3,   0.00,   0.00,  992.6,    0.0, -999.0
24-10-2022, 00:44:03,    154,    0.0,   10.1,   0.00,   0.00,  992.6,    0.0, -999.0
24-10-2022, 00:44:13,    154,    0.0,   10.3,   0.00,   0.00,  992.6,    0.0, -999.0
24-10-2022, 00:44:23,    154,    0.0,   10.3,   0.00,   0.00,  992.6,    0.0, -999.0
24-10-2022, 00:44:33,    154,    0.0,   10.2,   0.00,   0.00,  992.6,    0.0, -999.0
24-10-2022, 00:44:43,    154,    0.0,   10.3,   0.00,   0.00,  992.6,    0.0, -999.0
24-10-2022, 00:44:53,    154,    0.0,   10.3,   0.00,   0.00,  992.6,    0.0, -999.0
24-10-2022, 00:45:03,    154,    0.0,   10.3,   0.00,   0.00,  992.6,    0.0, -999.0
24-10-2022, 00:45:13,    154,    0.0,   10.3,   0.00,   0.00,  992.6,    0.0, -999.0
24-10-2022, 00:45:23,    154,    0.0,   10.2,   0.00,   0.00,  992.6,    0.0, -999.0
24-10-2022, 00:45:33,    154,    0.0,   10.3,   0.00,   0.00,  992.6,    0.0, -999.0
24-10-2022, 00:45:42,    154,    0.0,   10.2,   0.00,   0.00,  992.6,    0.0, -999.0
24-10-2022, 00:45:53,    154,    0.0,   10.2,   0.00,   0.00,  992.6,    0.0, -999.0
24-10-2022, 00:46:03,    154,    0.0,   10.3,   0.00,   0.00,  992.6,    0.1, -999.0
24-10-2022, 00:46:12,    155,    0.0,   10.3,   0.00,   0.00,  992.6,    0.0, -999.0
24-10-2022, 00:46:22,    154,    0.0,   10.3,   0.00,   0.00,  992.6,    0.0, -999.0
24-10-2022, 00:46:32,    154,    0.0,   10.3,   0.00,   0.00,  992.6,    0.0, -999.0
24-10-2022, 00:46:42,    154,    0.0,   10.2,   0.00,   0.00,  992.6,    0.0, -999.0